Temperature
17 17 17 17 17 17 17 17 17 16 16 16 15 15 15 15 15 15 15 15 15 14 14 14 14 14 13 13 13 13 13 12 12 12 12 12 11 11 11 11 11 11 11
16 16 16 16 17 17 17 16 16 16 16 16 15 15 15 15 15 15 15 15 14 14 14 14 14 13 13 13 13 13 13 13 12 12 12 11 11 12 11 11 11 11 11
16 15 15 16 16 16 16 16 15 15 15 15 15 15 15 15 14 14 14 14 14 14 14 13 13 13 13 13 13 13 13 12 12 12 12 11 11 12 12 12 12 11 11
15 14 14 14 15 15 15 14 14 14 14 14 14 14 14 14 14 14 14 14 14 14 13 13 13 13 13 13 12 12 12 12 12 12 12 11 11 11 11 12 12 11 11
14 13 13 13 13 13 13 13 13 13 13 13 13 13 13 13 13 13 13 13 13 13 13 13 13 12 12 12 12 12 12 12 12 12 11 11 11 10 10 10 11 11 11
13 12 12 12 12 12 12 12 12 12 12 12 12 12 12 12 12 12 12 13 13 13 13 12 12 12 12 12 12 12 12 11 11 11 11 11 10 10 10 10 10 10 10
12 12 11 11 11 11 11 11 11 11 11 11 11 11 11 11 11 11 11 11 11 11 12 12 12 11 11 11 11 11 11 11 11 11 10 10 10 10 10 10 9 9 9
12 11 11 11 11 10 10 10 10 10 10 10 10 9 9 9 10 10 10 10 10 10 10 10 11 11 11 11 10 10 10 10 10 10 10 10 10 9 9 9 9 8 8
11 11 11 10 10 10 9 9 9 9 8 8 8 8 8 8 8 8 9 9 9 9 9 9 9 10 10 10 10 10 10 10 10 10 9 9 9 9 8 8 8 7 7
11 10 10 10 9 9 9 8 8 8 8 8 8 8 8 8 8 8 8 8 8 8 8 9 9 9 9 9 9 9 9 9 9 9 9 9 8 8 8 7 7 7 6
10 10 10 9 9 8 8 7 7 7 7 7 7 7 7 7 7 7 7 7 7 7 8 8 8 8 8 8 8 8 8 8 8 8 8 8 7 7 7 7 6 6 6
10 10 9 8 8 7 7 6 6 6 6 6 6 6 6 6 6 6 6 6 6 6 6 7 7 7 7 7 7 7 8 7 7 7 7 7 7 6 6 6 5 5 5
10 9 8 8 7 7 6 6 5 5 5 5 5 5 5 5 5 5 5 5 5 5 6 6 6 6 6 6 6 6 6 6 6 6 6 6 5 5 5 5 5 4 4
9 9 8 7 7 6 5 5 4 4 4 4 4 4 4 4 4 4 4 5 5 5 5 5 5 5 5 5 5 5 5 5 5 5 5 4 4 4 4 3 3 3 3
9 8 8 7 6 5 4 4 4 3 3 3 3 3 3 3 3 3 4 4 4 4 4 4 4 4 5 4 4 4 4 4 3 3 3 3 2 2 2 2 2 1 1
9 8 7 6 5 4 4 3 3 2 2 2 3 3 3 2 2 2 3 3 3 3 3 3 3 3 3 3 3 3 3 2 2 2 1 1 1 1 0 0 0 0 0
9 8 7 6 5 4 3 2 2 2 2 2 2 2 2 2 2 2 2 2 2 2 2 2 2 2 2 2 2 1 1 1 1 0 0 -0 -0 -0 -0 -0 -0 -0 -1
9 8 7 6 5 4 3 2 2 1 1 1 1 1 1 1 1 1 1 1 1 1 1 1 1 1 1 1 1 1 0 0 0 -0 -0 -1 -1 -1 -1 -1 -1 -2 -2
9 8 7 6 4 3 3 2 2 1 1 1 1 1 1 1 1 1 1 1 1 1 1 1 1 1 1 0 0 -0 -0 -1 -1 -1 -1 -2 -2 -2 -2 -2 -3 -3 -3
8 7 6 5 4 3 3 2 2 2 1 1 1 1 1 1 1 1 1 1 1 1 0 0 0 -0 -0 -1 -1 -1 -1 -2 -2 -2 -3 -3 -3 -4 -4 -4 -4 -4 -5
7 6 6 5 4 4 3 3 3 2 2 2 1 1 1 1 1 1 1 1 0 0 0 -0 -0 -1 -1 -1 -2 -2 -2 -3 -3 -4 -4 -4 -5 -5 -6 -6 -6 -6 -6
7 6 5 5 4 4 3 3 3 3 2 2 2 1 1 1 1 1 1 0 0 -0 -0 -0 -1 -1 -2 -2 -3 -3 -4 -4 -4 -5 -5 -6 -6 -6 -7 -7 -7 -7 -7
6 6 5 5 4 4 4 4 3 3 2 2 2 1 1 1 1 1 0 0 0 -0 -0 -1 -1 -2 -2 -3 -3 -4 -5 -5 -5 -6 -6 -7 -7 -7 -7 -7 -7 -8 -7
6 6 5 5 5 4 4 3 3 3 2 2 2 1 1 1 1 0 0 -0 -0 -0 -1 -1 -2 -2 -3 -3 -4 -4 -5 -5 -6 -6 -7 -7 -7 -7 -7 -8 -8 -8 -8
6 6 5 5 5 5 4 4 3 3 2 2 2 2 1 1 1 0 0 -0 -0 -1 -1 -1 -2 -2 -3 -3 -4 -5 -5 -6 -6 -7 -7 -7 -7 -7 -7 -8 -8 -8 -8
6 6 5 5 5 4 4 4 3 3 2 2 2 2 1 1 1 0 -0 -0 -1 -1 -1 -1 -2 -2 -3 -4 -4 -5 -6 -6 -7 -7 -7 -7 -7 -7 -7 -8 -8 -8 -8
Wind_Speed
2 4 5 6 7 7 7 5 5 3 2 1 2 3 4 5 4 6 11 12 12 13 11 7 7 7 9 10 9 8 8 7 4 4 3 4 4 6 6 7 8 12 17
5 5 5 6 7 6 6 6 5 4 2 1 1 2 3 3 4 4 7 10 12 13 11 8 8 8 8 9 10 9 6 6 6 5 3 4 4 6 7 7 9 9 12
10 7 6 6 7 7 6 5 5 5 4 2 1 1 1 2 2 2 3 5 9 11 11 10 8 8 9 9 10 10 10 9 7 6 6 5 8 5 4 7 9 9 8
9 8 8 7 6 5 5 6 6 6 5 4 3 2 0 2 3 3 4 5 6 8 10 10 9 9 8 9 10 10 10 10 8 6 6 5 4 5 4 4 5 7 9
10 9 8 8 6 5 5 6 6 7 6 6 5 3 2 2 3 3 4 5 4 5 7 8 7 9 8 9 10 9 10 10 10 8 5 6 4 4 5 6 4 4 7
9 8 7 8 6 5 6 6 7 6 6 6 6 5 4 4 4 4 5 4 4 4 5 5 5 6 7 8 9 9 10 10 11 9 7 6 5 7 8 11 8 6 5
10 9 9 7 6 6 5 6 6 6 6 7 6 5 4 4 3 4 4 5 4 4 6 5 5 5 6 7 7 8 9 10 10 11 10 10 10 5 6 9 7 6 4
9 9 8 8 6 6 6 6 6 5 6 6 6 6 5 3 3 4 4 4 4 4 6 6 5 5 5 5 5 5 6 6 8 10 10 9 10 8 7 6 6 5 4
9 9 8 7 7 6 5 5 5 5 6 6 5 6 6 5 5 5 4 4 4 5 6 6 6 5 5 5 4 3 4 4 5 6 7 7 6 6 7 6 6 7 6
9 8 7 6 6 6 5 5 5 5 4 5 5 5 6 6 5 5 6 6 6 6 7 7 7 7 7 6 4 3 3 2 2 2 2 2 1 1 2 3 4 5 6
9 8 7 6 6 6 5 5 5 5 5 5 5 5 6 6 6 6 7 6 7 7 7 7 7 8 8 8 7 6 6 5 5 4 3 4 3 2 1 1 1 2 3
8 8 8 7 6 5 5 4 4 4 4 4 5 5 5 6 7 7 7 7 7 8 8 8 8 9 9 9 8 8 8 7 7 7 6 5 4 4 3 2 2 1 1
8 7 7 6 5 5 4 4 4 4 4 4 5 5 6 6 6 7 7 7 7 8 8 9 10 10 9 9 9 9 9 9 8 7 7 6 5 5 4 4 3 2 2
9 8 7 6 5 5 4 4 3 3 4 4 5 6 6 6 6 6 7 7 7 8 9 9 9 9 9 9 9 9 9 9 9 9 8 7 6 5 4 4 4 4 3
9 9 8 6 6 5 4 4 3 3 4 4 5 5 5 6 6 6 7 7 8 9 9 9 10 9 8 9 9 9 9 9 9 10 9 9 9 8 6 4 4 4 4
10 9 9 8 7 6 5 4 3 3 4 4 5 4 5 5 6 6 7 8 8 8 9 10 10 10 9 13 14 11 9 9 9 8 8 9 10 11 12 11 9 7 5
10 10 9 8 7 6 6 5 4 4 4 4 4 4 4 5 6 6 7 7 8 8 9 9 9 9 11 15 15 14 9 8 8 7 7 7 8 9 7 9 11 11 11
11 10 9 8 7 6 6 6 5 5 5 4 4 4 4 5 6 6 6 7 6 7 7 7 7 7 9 13 13 12 8 7 7 6 6 6 6 5 6 6 6 6 6
9 9 9 8 7 7 7 7 6 5 4 4 4 4 4 5 5 5 5 5 5 5 5 4 6 6 6 10 11 9 5 5 6 5 5 4 5 8 8 6 5 5 5
9 9 9 7 8 8 8 8 7 6 5 4 4 4 4 5 5 4 4 3 4 4 3 4 4 4 4 7 9 8 3 4 4 4 5 7 6 7 7 4 3 3 3
9 10 10 8 8 8 8 8 7 6 5 5 5 4 4 4 4 4 3 3 3 3 2 2 2 2 3 5 6 6 3 2 2 2 3 4 7 7 7 5 1 4 3
8 9 9 8 8 9 9 8 8 6 6 6 5 5 4 4 4 4 3 3 3 2 1 0 1 2 3 4 4 5 4 3 1 2 3 4 8 8 7 5 5 6 4
9 9 8 8 8 9 9 10 8 7 7 7 6 5 5 4 4 4 4 3 2 2 2 2 1 2 2 3 5 5 5 5 1 2 6 7 8 7 5 6 7 4 2
10 9 9 10 10 9 9 9 9 9 8 7 7 6 5 4 4 4 4 3 3 3 3 2 2 2 2 2 2 2 3 4 4 3 5 7 7 5 5 4 4 3 3
10 10 11 11 11 10 10 9 10 10 9 8 7 6 6 6 5 4 4 4 4 5 4 3 3 3 3 4 5 3 3 3 4 3 1 2 2 3 3 3 3 3 3
10 10 11 11 11 11 10 10 11 11 10 8 7 6 5 5 5 4 2 4 4 4 5 6 5 4 4 5 6 7 7 8 8 3 1 2 3 3 4 4 4 3 3
Wind_Direction
140 97 89 95 91 77 79 77 77 54 72 124 184 213 230 238 239 237 237 233 229 225 220 224 222 217 224 226 219 215 214 219 187 186 240 269 246 236 229 216 213 215 214
136 103 85 78 83 81 73 66 59 50 52 111 194 211 231 244 244 250 251 246 240 235 231 224 228 222 226 229 225 217 218 215 185 182 193 259 283 253 230 214 218 218 213
158 139 115 98 87 77 68 60 45 39 33 21 51 20 25 344 319 281 270 265 259 250 242 237 233 230 225 231 228 219 219 225 210 196 179 195 231 252 263 230 224 215 211
153 146 135 118 102 88 71 56 43 40 31 32 45 51 26 267 268 275 278 288 280 269 259 251 244 241 235 233 232 225 221 220 219 215 223 216 185 197 255 263 234 219 216
157 152 145 132 113 93 72 54 48 40 31 35 40 43 13 294 294 302 303 301 298 290 279 267 256 251 247 242 238 232 225 222 223 210 202 220 227 217 220 255 251 238 225
156 144 131 121 105 84 65 55 52 38 26 28 30 32 11 343 338 333 325 315 307 302 301 294 275 264 258 252 247 242 234 231 229 223 207 199 200 207 214 236 238 235 233
152 142 136 128 115 90 70 60 57 39 24 23 19 11 1 350 335 323 318 317 316 312 310 306 294 283 271 265 258 252 247 239 235 231 227 224 228 217 214 229 238 236 235
154 148 144 135 122 103 83 71 63 45 26 21 11 9 5 359 342 331 323 320 314 307 313 313 307 298 294 287 277 265 259 252 246 242 237 234 234 227 220 218 220 234 241
154 147 139 132 124 108 93 84 73 51 28 15 11 19 12 9 358 351 352 346 339 335 340 342 342 337 329 322 309 291 283 270 260 259 251 246 244 235 231 223 212 218 235
148 144 140 133 121 111 97 80 72 58 31 22 21 27 12 7 4 9 8 1 356 0 3 6 5 4 2 356 353 347 338 339 335 323 305 285 294 270 248 239 230 222 232
157 153 144 132 120 108 97 83 66 52 33 27 28 26 15 12 17 22 17 14 16 17 18 17 20 21 19 16 21 22 21 28 25 23 35 35 32 28 19 7 255 233 217
156 150 143 132 123 113 102 87 67 50 36 37 39 31 24 25 29 27 22 24 28 26 29 31 34 32 29 26 30 34 36 40 40 37 45 42 44 45 34 37 34 25 47
150 145 142 140 135 125 111 93 70 51 45 51 48 38 31 31 32 30 28 32 36 36 37 40 40 36 32 31 34 40 44 44 44 43 45 38 43 44 37 42 43 33 37
160 156 154 150 144 132 118 102 79 60 61 61 57 48 38 37 39 39 39 41 43 44 42 43 43 41 40 38 37 44 49 50 47 46 45 40 41 45 44 46 43 42 47
172 170 165 161 152 141 129 116 98 76 74 72 64 55 49 49 50 49 47 48 49 50 46 47 44 41 44 45 47 48 53 51 50 47 43 42 47 53 59 63 54 51 52
183 174 167 164 162 156 146 129 115 99 90 83 72 64 61 59 57 57 56 56 54 53 53 51 48 47 49 53 57 61 54 51 49 45 38 36 38 44 51 60 60 59 57
181 175 172 167 164 160 149 141 131 115 102 93 84 76 74 70 63 65 63 59 55 55 54 50 48 49 52 56 59 64 62 57 50 45 40 40 37 40 37 43 45 43 46
175 171 163 159 157 151 142 135 129 119 110 103 96 92 89 84 78 73 68 63 61 60 58 52 44 42 52 60 64 67 58 54 45 42 41 38 20 28 46 41 36 29 23
164 160 158 155 154 152 146 138 131 127 126 123 117 107 101 99 93 87 79 72 74 69 59 51 45 40 37 57 64 67 50 47 31 22 26 30 8 23 38 44 30 20 6
144 148 148 147 154 156 149 145 146 150 152 143 130 120 117 117 113 109 100 91 90 88 78 58 39 31 16 47 60 66 55 43 21 10 5 8 11 13 23 53 34 3 334
145 149 153 159 165 159 154 155 159 168 159 144 137 133 133 135 134 129 126 125 120 112 96 68 9 358 4 20 42 55 79 56 29 14 351 335 349 352 350 2 345 303 322
151 157 162 168 167 163 162 167 176 171 157 151 151 152 157 160 152 149 149 150 152 149 162 156 327 332 335 345 2 20 30 63 73 339 304 304 328 336 340 343 318 327 5
168 168 170 171 174 175 174 180 183 169 162 162 168 168 168 170 166 170 174 176 180 184 202 205 230 288 321 339 2 5 359 3 16 296 315 323 328 335 336 325 332 359 8
180 176 175 183 190 189 188 187 177 172 169 176 179 176 172 172 172 178 178 176 183 190 200 208 222 252 282 289 292 308 323 332 323 310 322 337 344 352 342 338 350 348 304
187 185 191 197 199 192 194 189 178 175 179 184 185 183 180 172 173 178 188 185 201 195 194 204 207 211 249 265 284 282 255 262 267 285 294 336 334 336 328 320 311 308 313
190 193 199 202 200 195 198 193 184 181 181 187 189 185 179 178 176 176 193 225 212 212 202 199 202 230 255 286 304 309 310 313 316 336 319 301 301 299 300 302 302 296 290
Height
1518 1520 1522 1523 1525 1526 1528 1529 1530 1531 1532 1533 1534 1535 1535 1537 1538 1539 1540 1540 1541 1541 1541 1541 1542 1542 1542 1542 1543 1543 1543 1543 1543 1543 1542 1542 1542 1541 1541 1541 1541 1541 1541
1515 1517 1518 1520 1521 1523 1524 1525 1526 1527 1528 1529 1530 1530 1531 1532 1532 1533 1534 1535 1535 1536 1536 1536 1536 1536 1536 1536 1537 1537 1536 1536 1537 1537 1536 1535 1535 1533 1534 1534 1534 1534 1535
1511 1513 1515 1517 1518 1519 1520 1521 1522 1523 1523 1524 1525 1525 1526 1526 1527 1527 1528 1528 1529 1529 1529 1529 1530 1530 1530 1529 1530 1530 1530 1529 1530 1530 1531 1528 1525 1527 1526 1526 1526 1526 1527
1508 1510 1512 1514 1515 1516 1517 1518 1518 1518 1519 1519 1519 1520 1520 1520 1521 1521 1521 1522 1522 1522 1522 1522 1522 1522 1522 1522 1523 1523 1523 1523 1522 1522 1522 1522 1521 1521 1519 1519 1519 1519 1519
1505 1507 1509 1511 1512 1513 1514 1514 1514 1515 1515 1515 1515 1515 1515 1515 1515 1515 1515 1515 1515 1515 1515 1515 1515 1515 1515 1515 1515 1515 1515 1515 1515 1514 1514 1514 1514 1513 1513 1511 1511 1511 1511
1502 1505 1507 1508 1510 1510 1511 1511 1511 1511 1511 1511 1511 1510 1510 1510 1510 1509 1509 1509 1509 1509 1508 1508 1508 1507 1507 1507 1508 1508 1508 1508 1507 1507 1507 1506 1505 1504 1505 1504 1502 1503 1504
1499 1502 1504 1506 1507 1508 1508 1508 1508 1508 1508 1507 1507 1506 1505 1505 1504 1504 1503 1503 1502 1502 1502 1501 1501 1500 1500 1500 1500 1500 1500 1500 1500 1500 1499 1498 1498 1498 1497 1496 1495 1494 1494
1497 1500 1502 1504 1505 1505 1505 1505 1505 1505 1504 1503 1503 1502 1501 1500 1500 1499 1498 1498 1497 1496 1496 1495 1494 1494 1493 1493 1493 1493 1493 1493 1492 1492 1492 1491 1490 1490 1489 1489 1488 1486 1486
1495 1498 1500 1502 1502 1503 1503 1502 1502 1501 1501 1500 1499 1498 1497 1497 1496 1495 1494 1493 1492 1492 1491 1490 1489 1488 1488 1487 1486 1486 1486 1486 1485 1485 1485 1484 1483 1483 1482 1481 1481 1482 1479
1493 1496 1498 1499 1500 1500 1500 1499 1499 1498 1497 1497 1496 1495 1494 1493 1492 1492 1491 1490 1489 1488 1487 1486 1485 1484 1483 1482 1481 1480 1480 1479 1479 1479 1478 1477 1476 1476 1475 1475 1474 1474 1474
1492 1494 1496 1497 1497 1497 1497 1496 1495 1495 1494 1493 1493 1492 1491 1490 1489 1488 1487 1486 1485 1484 1483 1482 1481 1480 1478 1478 1477 1476 1475 1474 1474 1473 1472 1471 1471 1470 1469 1469 1468 1467 1467
1490 1492 1494 1494 1494 1494 1493 1493 1492 1491 1490 1490 1489 1489 1488 1487 1486 1485 1484 1483 1482 1481 1480 1479 1478 1476 1475 1474 1473 1472 1472 1471 1469 1468 1467 1466 1466 1465 1464 1463 1462 1462 1462
1489 1490 1491 1491 1491 1491 1490 1489 1489 1488 1487 1487 1486 1486 1485 1484 1483 1483 1482 1481 1480 1479 1478 1477 1475 1474 1473 1472 1471 1470 1469 1468 1466 1465 1464 1463 1462 1461 1460 1459 1458 1458 1457
1486 1487 1488 1488 1488 1488 1487 1486 1485 1485 1484 1484 1483 1483 1482 1482 1481 1481 1480 1479 1478 1477 1476 1475 1474 1472 1471 1470 1469 1467 1466 1465 1464 1463 1462 1461 1460 1459 1458 1457 1456 1455 1455
1483 1484 1485 1485 1485 1485 1484 1483 1483 1482 1482 1481 1481 1481 1480 1480 1479 1479 1478 1478 1477 1476 1475 1474 1472 1471 1470 1469 1467 1466 1465 1464 1463 1461 1460 1459 1459 1458 1457 1456 1455 1454 1454
1479 1481 1482 1482 1482 1482 1481 1481 1481 1480 1480 1479 1479 1479 1479 1478 1478 1478 1477 1476 1476 1475 1474 1473 1472 1471 1469 1469 1467 1466 1465 1464 1463 1461 1460 1459 1459 1458 1457 1456 1455 1454 1454
1476 1477 1478 1479 1479 1480 1479 1479 1479 1479 1478 1478 1478 1478 1478 1477 1477 1477 1477 1477 1476 1475 1474 1473 1472 1471 1470 1469 1468 1467 1466 1464 1463 1462 1461 1460 1459 1458 1457 1455 1454 1453 1452
1473 1474 1475 1476 1477 1477 1478 1478 1478 1478 1477 1477 1477 1477 1477 1477 1477 1478 1477 1477 1477 1476 1475 1474 1473 1472 1471 1470 1469 1468 1466 1465 1464 1462 1461 1460 1458 1457 1455 1454 1453 1452 1450
1470 1471 1473 1474 1475 1475 1476 1476 1477 1477 1477 1477 1477 1477 1478 1478 1478 1478 1478 1478 1478 1477 1476 1475 1474 1473 1472 1471 1469 1468 1466 1465 1463 1462 1460 1459 1457 1455 1453 1452 1451 1450 1448
1467 1469 1470 1472 1473 1474 1475 1475 1476 1476 1476 1477 1477 1478 1478 1479 1479 1479 1479 1479 1478 1478 1477 1476 1475 1474 1472 1471 1469 1468 1466 1464 1463 1461 1459 1457 1455 1454 1452 1450 1449 1447 1446
1465 1467 1468 1470 1471 1473 1474 1475 1475 1476 1476 1477 1477 1478 1479 1479 1479 1479 1479 1479 1478 1478 1477 1476 1475 1474 1472 1470 1469 1467 1465 1463 1461 1459 1457 1455 1454 1452 1450 1448 1447 1445 1444
1463 1465 1466 1468 1470 1471 1473 1474 1475 1476 1476 1477 1477 1478 1479 1479 1479 1479 1479 1479 1478 1478 1477 1476 1474 1473 1471 1469 1467 1465 1463 1461 1459 1457 1455 1453 1452 1450 1448 1446 1445 1443 1442
1461 1463 1465 1467 1468 1470 1471 1473 1474 1474 1475 1476 1477 1478 1478 1479 1479 1479 1479 1478 1477 1477 1476 1474 1473 1471 1470 1468 1466 1464 1461 1459 1457 1455 1453 1451 1449 1447 1446 1444 1442 1441 1439
1459 1461 1463 1464 1466 1468 1469 1471 1472 1473 1474 1475 1476 1476 1477 1477 1478 1478 1477 1477 1476 1475 1474 1473 1471 1469 1467 1465 1463 1461 1459 1457 1455 1452 1450 1449 1447 1445 1443 1442 1440 1439 1437
1457 1458 1460 1461 1463 1465 1467 1468 1470 1471 1472 1473 1474 1474 1475 1476 1476 1476 1476 1475 1474 1473 1472 1471 1469 1467 1465 1463 1461 1458 1456 1454 1452 1450 1448 1446 1444 1443 1441 1439 1438 1436 1435
1454 1455 1456 1458 1460 1461 1463 1465 1466 1468 1469 1470 1471 1472 1473 1473 1474 1474 1474 1473 1472 1471 1470 1468 1466 1464 1462 1460 1458 1456 1453 1451 1449 1447 1445 1443 1441 1439 1438 1436 1434 1433 1431